RH
4 9 18 16 15 12 12 11 11 14 14 13 18 29 33 36 36 58 60 60 39 22 16 16 18 22 28 42 56 63 62 47 39 41 40 36 30 31 27 25 26 27 26 25 24 24 24 26 26
6 14 16 16 17 19 14 11 14 14 14 15 25 34 37 41 46 52 63 64 42 29 25 22 21 22 23 34 45 46 40 39 40 40 38 33 35 33 34 34 34 34 36 36 36 34 31 29 31
11 16 16 14 14 12 12 11 14 14 15 15 22 38 43 50 50 56 64 62 65 59 34 32 30 28 35 33 36 38 43 44 45 44 44 42 38 36 37 37 38 40 42 44 45 46 45 42 37
21 15 13 13 11 10 9 10 12 14 15 15 37 50 56 53 55 60 63 62 67 63 43 42 40 37 36 45 43 43 46 50 52 47 42 40 42 43 41 42 45 46 48 50 51 52 52 53 52
15 13 14 12 10 9 8 10 10 12 15 51 44 73 58 57 58 58 60 68 75 64 50 50 49 49 43 40 41 41 40 40 41 42 44 44 45 47 50 52 56 55 56 59 62 65 68 68 66
13 11 14 10 10 9 9 10 11 11 16 48 48 61 59 59 60 63 68 81 83 72 56 55 56 57 53 51 53 52 50 48 49 57 60 65 62 61 62 61 63 65 70 74 72 71 67 64 65
12 14 12 8 8 10 11 11 13 13 21 28 62 70 70 74 71 71 80 77 87 83 67 62 66 65 61 55 64 66 66 75 79 70 61 78 72 68 68 73 76 78 72 67 64 66 69 67 62
8 9 8 7 8 13 11 11 13 18 33 29 40 67 66 77 76 88 81 83 91 98 95 92 95 74 69 60 60 67 54 63 63 81 60 79 85 83 84 90 79 74 68 64 63 61 59 54 51
11 11 10 10 9 11 9 9 12 21 34 46 51 52 66 74 77 82 91 93 87 91 97 99 100 97 80 66 63 52 63 64 68 58 66 99 95 81 74 64 57 48 48 42 40 37 39 41 53
9 10 11 9 8 10 9 9 10 24 45 58 56 59 64 65 66 73 87 95 89 92 91 73 76 65 73 63 71 68 64 72 82 62 74 89 79 72 68 61 54 44 40 46 46 37 36 36 45
7 7 8 7 11 10 8 9 16 32 60 52 55 58 58 55 58 78 86 94 91 75 77 69 58 70 77 67 74 75 68 75 92 84 74 64 55 49 51 43 40 39 40 40 39 37 35 35 34
9 7 9 8 11 10 9 26 35 38 45 47 51 52 49 67 71 88 54 56 60 67 83 63 67 68 72 70 85 85 88 79 71 62 57 52 51 44 42 43 42 44 42 41 47 51 54 50 46
6 8 8 9 9 9 16 42 46 41 42 47 48 49 57 65 77 92 69 67 87 80 81 90 90 83 80 84 92 89 85 72 59 50 46 46 47 46 46 51 59 59 55 63 63 65 67 65 59
7 9 6 7 8 9 16 44 44 61 44 45 48 55 60 67 79 97 92 98 93 88 86 98 98 98 98 98 96 76 57 50 45 45 47 49 58 78 70 68 70 71 67 70 69 63 60 57 56
8 8 6 8 10 11 15 38 63 73 54 47 52 56 60 71 80 93 99 83 86 91 92 88 74 71 65 59 66 71 71 57 46 49 55 56 65 76 81 66 63 67 57 50 54 51 55 55 47
8 8 11 10 10 11 12 57 70 75 72 66 62 60 74 71 79 94 98 96 90 84 78 71 62 55 51 58 66 69 68 78 81 72 57 55 57 61 59 45 46 64 48 15 18 44 47 62 44
9 13 10 14 11 10 13 61 73 76 76 83 76 82 74 83 90 94 88 86 83 76 70 69 54 45 44 43 40 59 70 76 82 81 60 54 56 77 80 37 63 72 34 13 16 35 49 59 35
11 12 10 11 13 12 36 64 72 72 76 87 91 87 86 89 90 84 79 75 69 69 63 43 37 36 40 40 45 54 64 86 88 70 67 70 54 40 77 57 46 73 39 18 13 25 50 55 35
14 12 10 9 14 15 17 52 67 72 75 88 96 95 91 84 77 71 68 63 62 55 43 38 38 41 46 59 70 77 85 90 91 80 81 59 49 41 32 23 17 56 36 14 10 8 17 42 48
11 11 11 12 13 14 14 37 58 68 74 84 93 99 87 66 63 61 62 60 57 50 47 44 47 73 72 68 70 74 82 83 74 70 65 60 50 40 21 3 5 10 10 7 7 7 12 34 53
13 14 13 12 14 15 14 32 62 63 70 79 89 90 76 59 55 57 58 60 58 56 50 62 70 70 69 69 62 61 74 84 86 90 74 62 53 38 12 2 4 7 7 6 8 10 17 30 47
16 11 12 14 16 21 14 24 51 65 73 78 87 85 74 56 52 54 56 59 59 59 58 65 70 69 63 71 68 74 73 78 79 83 77 65 49 38 8 2 5 6 6 5 7 15 22 24 43
13 14 14 15 16 17 16 22 19 52 63 74 72 72 67 52 50 50 52 57 59 64 66 69 70 69 66 71 74 71 73 75 84 82 77 72 58 42 10 3 5 6 5 5 9 19 28 22 32
11 16 17 17 18 25 18 19 44 46 44 51 57 60 55 48 46 46 48 55 57 65 70 72 69 68 70 71 77 77 80 81 82 82 77 72 64 49 14 3 5 6 5 6 10 30 43 26 30
15 20 29 29 29 27 15 19 26 28 27 39 43 48 44 43 42 42 49 54 56 64 70 70 68 71 74 79 82 87 86 80 78 76 73 68 60 51 7 3 6 6 5 6 10 45 42 30 27
18 21 30 34 37 39 30 25 30 22 20 27 36 37 39 40 39 42 48 52 54 62 70 72 70 72 80 87 91 88 78 72 75 71 67 64 56 22 5 4 6 6 6 8 10 53 41 32 33
20 25 18 26 26 41 49 34 28 24 26 25 33 36 38 39 38 42 46 50 52 59 70 73 68 71 82 86 83 76 74 76 72 67 72 61 26 14 8 6 8 9 10 12 13 53 53 32 38
17 15 25 27 43 42 28 25 37 31 32 28 34 36 36 37 38 42 45 51 52 57 67 74 69 71 82 84 75 68 66 69 71 72 66 41 10 6 6 7 10 15 17 17 16 26 35 44 42
17 19 27 23 30 48 55 43 28 28 29 32 32 35 36 36 37 40 44 48 53 57 64 73 74 75 82 82 70 64 61 64 65 63 43 16 9 7 6 7 8 13 17 18 17 22 56 33 46
18 23 26 57 44 46 56 49 24 24 23 28 28 29 33 34 35 38 43 46 55 60 65 73 80 80 83 75 67 56 60 62 59 45 25 11 9 10 7 7 8 13 15 16 18 24 24 31 45
Wind_Speed
7 6 14 15 5 7 6 7 15 14 16 17 21 24 23 24 13 12 18 14 15 16 15 13 12 10 9 8 7 6 5 6 7 7 7 7 8 9 10 11 12 12 13 12 12 12 11 11 10
7 8 10 9 7 4 3 12 17 14 15 9 27 17 27 22 23 22 21 16 16 17 16 15 14 12 11 9 8 7 7 7 7 6 7 7 8 8 8 9 10 10 10 10 10 9 9 8 8
9 6 12 5 11 5 11 14 14 12 5 5 12 20 14 13 13 21 20 19 18 15 17 16 14 13 13 11 10 9 8 7 7 7 7 6 6 7 7 7 6 6 6 6 6 6 6 6 5
8 10 11 9 5 12 13 10 10 10 4 1 27 15 16 13 18 22 20 18 19 13 17 16 14 12 12 12 10 9 9 8 7 6 5 4 5 4 3 3 4 6 7 7 8 7 7 6 6
12 9 10 17 8 12 8 10 10 2 6 31 28 8 22 21 22 19 21 21 16 12 17 15 13 11 10 8 7 7 7 6 6 5 4 3 1 1 2 2 3 4 5 8 9 10 11 12 11
6 8 14 9 11 8 7 8 7 5 8 25 16 25 21 19 20 22 21 19 10 13 16 13 11 9 9 8 6 6 5 4 4 4 4 4 4 5 7 8 9 10 11 10 11 11 10 11 11
13 9 20 12 5 7 10 6 12 12 21 20 29 13 14 23 19 20 24 19 13 11 13 12 8 8 8 6 6 6 7 6 5 4 4 7 7 8 9 8 8 8 10 11 11 12 11 11 12
12 10 20 9 7 13 10 1 2 6 13 6 6 8 15 25 20 18 19 19 20 18 13 9 7 7 6 5 6 7 5 2 6 4 10 8 4 5 5 8 8 8 8 10 10 9 9 10 11
15 10 11 14 10 9 8 10 7 10 19 25 18 27 30 22 23 18 21 19 17 17 13 11 3 4 7 6 5 2 4 4 11 8 18 2 4 9 9 9 9 10 11 12 11 9 8 8 12
10 10 13 11 10 10 6 2 8 10 27 25 28 28 28 27 22 24 17 18 17 16 12 8 7 5 8 9 4 8 4 5 6 7 13 2 4 5 6 6 7 8 8 10 10 8 9 8 4
10 11 11 7 10 8 7 5 15 17 15 23 29 28 28 24 23 18 17 18 17 14 11 8 7 7 8 4 6 5 8 8 2 2 3 6 5 8 7 9 9 9 9 10 10 11 12 11 11
4 20 6 11 7 6 9 21 22 18 25 21 24 24 26 22 20 18 17 13 12 11 9 6 5 6 8 6 5 4 6 2 4 6 6 7 7 8 9 9 8 10 10 11 13 14 17 16 15
9 16 3 12 2 7 5 19 17 16 16 21 22 21 20 21 19 14 13 12 8 8 6 7 5 4 6 6 3 3 2 6 8 9 9 10 9 9 8 10 11 13 12 14 13 12 13 12 13
12 11 14 9 6 2 7 18 6 5 13 19 20 19 19 20 16 15 10 7 7 5 4 7 8 5 5 5 7 8 12 12 12 11 11 11 13 13 11 9 9 9 11 9 10 10 10 8 8
11 11 10 9 6 5 12 13 10 6 9 16 19 19 19 19 14 11 9 6 8 8 6 7 11 14 15 16 18 14 13 10 10 10 10 11 10 9 8 9 10 12 11 8 8 11 8 11 10
12 12 12 11 6 9 10 11 12 10 12 13 16 16 18 15 14 10 11 8 10 10 9 12 14 13 13 14 15 13 11 10 9 8 9 10 10 8 7 9 10 9 10 10 9 11 11 14 12
12 11 16 11 9 6 11 16 14 11 14 14 13 14 16 14 14 10 11 14 15 12 14 14 13 14 15 13 11 13 12 10 8 6 8 9 9 10 11 11 10 10 9 13 12 11 12 14 15
13 11 5 5 10 6 16 17 16 15 15 15 13 14 15 13 10 14 14 15 16 15 15 13 12 12 12 10 11 10 10 10 6 7 8 8 11 10 7 10 9 8 11 13 14 13 11 13 16
9 12 13 1 9 2 4 18 16 18 16 15 13 13 13 11 15 17 17 16 16 15 14 12 12 12 10 11 10 11 9 6 5 7 8 10 10 12 12 8 9 7 10 14 16 17 14 13 18
9 13 13 6 7 1 12 15 17 19 19 17 16 15 15 18 19 19 19 17 14 15 14 12 12 12 8 9 9 10 10 5 4 6 8 9 10 13 14 11 10 10 11 15 17 18 17 14 16
12 13 13 15 10 8 13 10 17 16 15 16 17 16 17 19 21 21 21 19 16 16 14 11 9 11 10 10 9 7 7 8 9 5 8 10 11 14 15 11 10 11 13 16 17 17 16 15 13
13 13 14 8 6 10 15 11 17 20 14 17 19 21 22 23 21 21 21 20 18 15 14 11 10 12 10 7 4 6 4 9 5 5 7 11 10 13 13 11 11 13 14 15 16 16 14 13 12
12 6 5 8 11 12 16 10 14 23 18 17 21 24 26 25 24 23 23 21 18 16 16 14 13 10 8 10 6 7 7 4 3 4 6 9 14 14 13 10 11 12 13 14 14 13 13 12 10
12 5 10 9 11 11 16 14 8 14 18 20 27 30 31 28 25 24 22 21 19 17 16 17 14 13 10 9 10 9 10 8 5 5 1 3 8 14 11 9 10 12 12 13 14 12 11 12 10
11 9 8 9 9 11 17 12 7 13 11 24 22 30 31 29 28 27 25 23 22 21 20 18 16 14 12 11 9 9 8 9 10 5 9 7 9 12 10 8 9 11 12 12 12 10 10 13 11
15 14 8 12 5 5 13 6 7 13 7 22 28 26 27 29 29 28 26 24 24 22 21 18 17 15 13 12 12 11 10 7 11 10 10 9 10 12 8 8 9 10 10 10 10 8 8 12 11
14 15 17 15 12 7 7 5 6 9 9 10 23 25 27 28 30 28 26 25 25 24 22 20 19 17 15 14 14 11 10 11 13 10 9 11 9 8 8 9 9 10 11 11 10 7 9 12 11
17 11 10 7 6 9 8 14 7 12 9 9 17 23 27 28 29 27 27 25 25 25 22 21 20 20 19 18 16 13 12 12 12 11 11 11 11 8 9 9 9 10 11 12 11 8 9 11 11
12 13 10 9 8 4 4 4 7 10 10 7 12 18 24 28 30 30 28 26 26 25 25 25 23 22 23 21 16 15 13 12 10 12 12 11 10 9 9 9 9 10 11 11 11 10 8 13 12
13 15 14 3 7 2 2 4 4 4 6 15 12 16 17 25 28 28 26 24 23 23 25 27 25 26 27 23 19 16 15 13 12 12 13 12 10 11 10 10 10 10 11 12 12 11 12 13 13
Wind_Direction
292 296 328 300 255 220 75 75 85 80 81 69 58 71 68 56 55 98 107 113 116 113 109 109 108 107 105 112 113 105 90 81 83 88 83 76 74 72 68 65 60 60 63 57 56 54 52 47 44
309 304 279 277 252 336 8 69 69 69 80 93 105 99 75 83 91 114 113 114 112 112 110 106 102 99 95 94 93 91 91 96 99 93 85 89 89 82 76 73 72 65 62 63 64 61 57 54 53
322 318 287 226 244 21 57 58 80 83 123 189 98 83 74 94 81 117 121 117 111 119 116 110 106 104 104 103 103 104 104 103 100 94 94 91 84 76 67 66 66 67 63 60 56 50 49 46 46
323 268 252 249 23 59 22 52 96 137 136 337 92 81 75 85 111 120 120 116 123 128 120 115 113 113 112 111 119 126 126 124 115 107 95 79 72 73 71 47 33 23 16 11 8 4 5 8 8
271 265 265 267 29 75 29 35 339 97 110 83 95 73 88 93 117 116 119 125 134 122 122 120 115 111 107 110 118 125 134 134 130 125 121 115 95 342 344 11 7 5 2 359 354 350 349 347 346
293 274 289 314 104 70 71 23 345 318 107 116 99 122 99 111 116 110 120 113 119 125 121 114 109 109 103 101 99 83 62 57 65 65 53 17 339 337 348 351 346 350 349 352 353 349 345 341 340
251 283 281 333 19 122 70 333 357 4 58 58 125 113 109 103 124 143 131 132 135 97 111 117 123 127 110 101 90 80 69 44 42 27 354 359 349 342 339 344 351 358 0 359 357 350 350 349 344
300 284 289 257 3 82 74 286 352 48 53 60 168 127 140 130 144 135 136 130 122 114 114 108 133 121 114 107 123 116 41 37 330 55 342 331 347 356 20 41 29 23 14 5 359 1 354 357 358
284 271 299 23 61 62 89 339 102 76 74 61 72 119 134 138 133 113 118 126 126 121 119 125 123 91 115 130 163 213 190 7 291 296 298 50 14 42 36 31 31 27 31 30 29 28 27 25 18
291 291 14 26 35 17 12 252 22 111 94 84 97 117 130 132 130 125 121 127 129 133 149 152 145 173 173 157 229 210 228 296 287 247 251 202 46 27 21 21 19 25 23 35 23 21 20 24 0
340 314 339 345 35 7 326 314 72 80 115 137 137 134 134 132 126 119 116 126 142 148 153 169 176 190 174 352 308 224 266 261 229 104 57 41 40 35 41 43 49 42 37 28 7 6 4 0 352
306 307 288 316 55 318 298 78 65 66 104 125 133 136 132 119 122 134 125 128 147 144 152 113 132 200 215 268 210 229 277 77 85 78 80 80 81 76 66 51 37 24 17 13 11 16 9 8 7
286 284 307 285 306 266 30 76 91 74 105 123 129 132 128 129 127 124 125 147 137 131 112 111 122 211 233 224 213 285 103 99 93 89 86 82 77 65 52 40 27 16 19 16 9 28 19 17 25
303 295 288 268 264 238 161 125 106 52 117 133 135 134 134 135 132 129 153 131 136 129 98 92 116 139 156 182 134 106 93 91 91 88 81 72 58 52 30 39 28 17 13 30 9 32 29 20 25
282 272 245 230 213 214 141 137 98 105 132 153 136 140 144 132 138 134 156 128 131 109 95 105 106 107 109 102 95 97 88 83 88 82 75 69 65 60 25 17 24 22 4 13 23 15 40 4 2
260 256 270 166 188 185 227 124 120 134 146 136 141 141 133 144 137 140 130 119 111 106 109 108 109 112 116 114 117 116 106 89 69 62 61 54 51 34 19 23 43 25 4 16 23 20 36 8 7
226 259 243 163 197 197 188 122 140 161 165 162 158 154 157 142 155 144 133 135 133 138 128 130 135 131 127 128 121 119 119 115 104 77 52 46 49 65 16 32 58 11 20 29 33 34 40 7 350
313 239 241 279 157 205 101 122 151 165 172 167 167 164 162 169 158 144 144 140 135 137 142 144 134 129 124 121 115 113 105 99 90 69 67 49 49 63 69 13 61 35 17 24 30 32 51 5 348
311 301 301 225 91 340 324 143 158 168 169 171 166 169 164 167 162 150 146 146 149 148 145 143 141 130 115 98 96 100 115 102 73 73 59 48 45 34 30 30 42 68 12 20 22 22 24 18 1
281 273 266 99 104 240 266 153 151 171 173 180 174 173 177 169 161 157 154 157 158 149 151 155 143 114 126 113 135 142 149 164 38 49 44 32 28 21 18 28 34 35 21 18 16 16 19 31 9
249 257 261 268 159 212 269 174 151 166 167 180 179 178 187 175 170 166 163 167 165 164 163 150 143 143 152 180 163 133 93 76 72 54 353 11 9 10 11 22 25 19 18 16 13 14 17 22 18
253 248 253 291 229 258 221 255 160 162 168 183 183 191 196 181 177 176 173 172 169 179 155 168 169 160 189 137 118 77 95 145 198 268 335 350 357 2 5 10 14 13 10 9 10 9 15 14 18
249 317 249 250 257 262 262 234 230 157 172 186 195 199 197 183 179 183 179 178 173 181 169 175 174 168 173 164 178 147 196 190 179 291 351 345 335 351 359 3 2 2 2 6 6 10 7 12 11
256 221 253 260 262 255 251 257 156 178 189 180 188 192 189 177 182 185 183 180 179 185 181 186 173 188 179 185 184 180 189 180 208 192 203 270 302 322 341 344 347 350 356 0 4 4 358 1 2
229 227 234 230 231 246 246 239 128 166 189 169 179 190 176 175 180 183 183 183 184 187 192 188 176 192 191 190 187 201 210 209 226 231 238 232 270 296 320 331 337 343 348 352 1 354 354 347 352
212 227 234 232 245 354 316 253 120 132 136 168 170 173 173 173 182 185 188 187 192 192 197 185 182 193 195 189 192 206 223 230 235 230 249 268 278 295 309 321 326 333 338 347 358 343 345 337 344
211 218 245 264 271 203 216 109 116 143 148 168 157 168 177 179 184 187 190 191 197 197 200 189 188 196 200 201 212 216 210 224 239 265 265 276 278 303 308 316 324 331 337 344 355 334 327 333 338
246 236 223 238 251 265 253 227 140 163 164 169 158 174 179 184 189 192 194 196 199 203 203 202 192 200 202 212 219 225 230 235 249 264 264 272 283 270 291 311 323 327 329 332 338 330 326 326 331
212 231 246 227 222 244 275 77 169 149 149 168 171 183 185 188 193 196 200 204 199 205 204 207 196 204 207 218 220 227 238 241 253 266 274 277 283 285 294 303 313 313 317 321 325 328 326 317 324
221 212 229 197 228 154 186 154 71 101 143 163 183 185 201 196 200 199 197 201 199 205 201 211 204 208 218 221 220 227 235 244 255 264 268 273 272 285 292 298 302 302 305 313 316 319 319 321 320